[[{"header":{"parameterUnit":"m.s-1","parameterCategory":1,"la1":30.2991,"la2":30.254,"lo1":-89.0895,"lo2":-89.0444,"dy":0.0017,"dx":0.0017,"nx":28,"ny":28,"refTime":"2025-04-10T21:00:00:Z","depth":0,"parameterNumber":2,"parameterNumberName":"U-component_of_WINDS"},"data":[0,0,0,0,0,0,0,0,0,0,0,0,0,0,0,0,0,0,0,0,0,0,0,0,0,0,0,0,0,0,0,0,0,0,0,0,0,0,0,0,0,0,0,0,0,0,0,0,0,0,0,0,0,0,0,0,0,0,3.0095,3.0096,0,3.0179,3.018,3.0181,3.0141,3.0139,3.0137,3.0134,3.0228,3.0232,3.0237,0,0,0,0,0,0,0,0,0,0,0,0,0,2.9904,2.9908,3.0095,3.0096,3.0097,3.0179,3.018,3.0181,3.0141,3.0139,3.0136,3.0133,3.0226,3.0232,3.0237,0,0,0,0,0,0,0,0,0,0,0,0,0,2.9988,2.9909,3.0094,3.0086,3.0086,3.0179,3.018,3.0182,3.0142,3.0139,3.0135,3.0132,3.0224,3.0231,3.0238,3.0345,0,0,3.0258,3.0261,0,0,0,0,0,0,0,0,2.9983,2.9995,3.0087,3.0087,3.0087,3.0146,3.0147,3.0237,3.0143,3.0121,3.0134,3.0131,3.0204,3.0212,3.0235,3.0349,3.0353,3.0259,3.0263,3.0266,3.0268,0,0,0,0,0,0,0,2.9977,2.9991,3.0128,3.0088,3.0088,3.0081,3.0089,3.0164,3.018,3.0123,3.012,3.013,3.0203,3.0229,3.0237,3.0355,3.0259,3.0265,3.0269,3.0272,3.0561,3.0565,0,0,0,0,0,0,2.9971,2.9987,3.0126,3.0131,3.0026,3.0087,3.0096,3.0131,3.0179,3.0183,3.0133,3.0128,3.0219,3.0229,3.024,3.0368,3.0266,3.0272,3.0276,3.0558,3.0562,3.0566,0,0,0,0,0,0,2.9967,2.9984,3.0122,3.0058,3.0075,3.0093,3.0133,3.0134,3.0159,3.0186,3.019,3.0155,3.0217,3.0231,3.0319,3.0371,3.0275,3.0282,3.0553,3.0559,3.0564,3.0626,0,0,0,0,0,0,2.9962,2.9983,3.0022,3.0059,3.0078,3.0197,3.0136,3.0138,3.017,3.0165,3.0209,3.0213,3.0215,3.0309,3.0325,3.0379,3.0287,3.0549,3.0556,3.0562,3.062,3.0633,3.0645,0,0,0,0,0,2.9955,3.0037,3.0024,3.0041,3.0128,3.02,3.0212,3.0211,3.0175,3.0215,3.0233,3.0211,3.0363,3.0318,3.0337,3.0393,3.0546,3.0554,3.0562,3.0614,3.063,3.0644,0,0,0,0,0,0,3.0008,3.0042,3.0028,3.0124,3.0159,3.0193,3.0244,3.0229,3.0277,3.027,3.0269,3.0279,3.037,3.0391,3.034,3.0499,3.0449,3.0461,3.0482,3.0498,3.051,3.0503,3.0292,0,0,0,0,0,3.0031,3.0085,3.0113,3.0195,3.0213,3.0226,3.0258,3.0254,3.0292,3.0307,3.0331,3.037,3.0426,3.0463,3.0517,3.0623,3.0632,3.0671,3.0683,3.0693,3.0704,3.0761,3.0779,3.0593,3.0593,3.0593,0,0,3.0078,3.0104,3.0138,3.0206,3.0233,3.0291,3.0239,3.0303,3.0346,3.0317,3.0401,3.042,3.0464,3.0561,3.0605,3.0581,3.0757,3.0704,3.0712,3.0717,3.0771,3.0789,3.0805,3.0599,3.0598,3.0597,0,0,3.0194,3.0219,3.029,3.0318,3.0359,3.0367,3.0384,3.0421,3.0432,3.0515,3.0495,3.0548,3.0645,3.0677,3.0706,3.0835,3.0817,3.0853,3.0918,3.0974,3.0989,3.1002,3.1047,3.1064,3.0863,3.0863,3.0863,0,3.0249,3.0333,3.0329,3.0394,3.0425,3.04,3.0473,3.0501,3.0558,3.0581,3.0553,3.0673,3.0701,3.0805,3.0837,3.0861,3.0882,3.0847,3.0987,3.1,3.1012,3.1055,3.1073,3.0867,3.0867,3.0866,3.0866,0,3.0399,3.0458,3.0511,3.0564,3.0601,3.067,3.0678,3.0717,3.071,3.0722,3.0808,3.0841,3.09,3.0925,3.092,3.1029,3.1012,3.0986,3.0935,3.1033,3.1074,3.1091,3.0873,3.0871,3.087,3.0869,0,0,3.0549,3.0599,3.0619,3.0643,3.0687,3.0733,3.0802,3.0858,3.0891,3.0932,3.099,3.1073,3.1048,3.1081,3.108,3.1129,3.1229,3.1097,3.1098,3.112,3.1351,3.137,3.139,3.1218,3.1221,3.1224,3.1347,0,3.0668,3.0785,3.0784,3.0893,3.0949,3.0926,3.0986,3.102,3.1034,3.1084,3.1099,3.1157,3.1121,3.114,3.1188,3.1207,3.1276,3.1198,3.1273,3.1276,3.1261,3.1411,3.1432,3.1546,3.1363,3.1366,3.1368,0,3.0822,3.0865,3.098,3.1015,3.1039,3.1092,3.1143,3.1191,3.1231,3.1237,3.1274,3.1265,3.1336,3.1284,3.1383,3.1331,3.1362,3.1376,3.138,3.1386,3.1327,3.1421,3.1583,3.16,3.1393,3.1391,3.139,0,3.0919,3.1007,3.1087,3.1109,3.1152,3.119,3.1211,3.1247,3.1281,3.1327,3.1349,3.1403,3.1433,3.1477,3.1483,3.1445,3.1583,3.1531,3.1591,3.1591,3.162,3.1618,3.1789,3.1642,3.1642,3.1641,3.1641,0,3.1051,3.1122,3.1131,3.118,3.126,3.1259,3.1338,3.1355,3.1387,3.1441,3.1426,3.1477,3.1483,3.1536,3.1542,3.1623,3.1637,3.1645,3.1646,3.1646,3.1645,3.1665,3.1657,3.1646,3.1645,3.1644,3.1643,0,3.1173,3.1182,3.1267,3.1302,3.1312,3.1369,3.1399,3.1447,3.1459,3.1526,3.1542,3.1562,3.1623,3.1634,3.1708,3.1712,3.1808,3.1802,3.1794,3.1793,3.1852,3.1846,3.2041,3.2067,3.1904,3.1905,3.1907,0,3.1256,3.131,3.135,3.1383,3.1405,3.146,3.1494,3.1496,3.1533,3.1582,3.1624,3.1683,3.1731,3.1831,3.1852,3.1909,3.1902,3.1967,3.1911,3.1909,3.1903,3.1899,3.1904,3.1978,3.1979,3.1981,3.1982,0,3.1403,3.1404,3.1453,3.1504,3.1544,3.1585,3.1623,3.1652,3.166,3.1702,3.1763,3.18,3.1874,3.1934,3.199,3.2013,3.1999,3.2,3.2016,3.2016,3.2009,3.2013,3.1823,3.1995,3.1994,3.1993,3.1992,3.1991,3.1507,3.1554,3.1589,3.1644,3.1673,3.1709,3.1755,3.1772,3.1823,3.1882,3.1881,3.1949,3.1988,3.2061,3.2088,3.2142,3.2121,3.2146,3.2152,3.2157,3.2162,3.2002,3.2152,3.2152,3.2152,3.2151,3.2151,0,3.1652,3.1673,3.1724,3.1777,3.1821,3.1803,3.1844,3.1883,3.1942,3.1978,3.2025,3.2097,3.2154,3.2181,3.2238,3.2276,3.2272,3.2291,3.2288,3.2294,3.2178,3.2157,3.2294,3.2294,3.2294,3.2294,3.2294,3.2294,3.1732,3.1809,3.1816,3.1908,3.193,3.1994,3.202,3.2054,3.2083,3.2162,3.221,3.2226,3.2259,3.2318,3.2371,3.2378,3.2399,3.2422,3.2425,3.2316,3.2302,3.2288,3.2268,3.2427,3.2427,3.2536,3.2537,3.2538]},{"header":{"parameterUnit":"m.s-1","parameterCategory":1,"la1":30.2991,"la2":30.254,"lo1":-89.0895,"lo2":-89.0444,"dy":0.0017,"dx":0.0017,"nx":28,"ny":28,"refTime":"2025-04-10T21:00:00:Z","depth":0,"parameterNumber":3,"parameterNumberName":"V-component_of_WINDS"},"data":[0,0,0,0,0,0,0,0,0,0,0,0,0,0,0,0,0,0,0,0,0,0,0,0,0,0,0,0,0,0,0,0,0,0,0,0,0,0,0,0,0,0,0,0,0,0,0,0,0,0,0,0,0,0,0,0,0,0,3.908,3.9081,0,3.9165,3.9166,3.9167,3.9193,3.9193,3.9192,3.9192,3.9271,3.9274,3.9276,0,0,0,0,0,0,0,0,0,0,0,0,0,3.8932,3.8934,3.908,3.9081,3.9082,3.9164,3.9166,3.9167,3.9193,3.9193,3.9192,3.9192,3.927,3.9273,3.9276,0,0,0,0,0,0,0,0,0,0,0,0,0,3.9004,3.8935,3.908,3.9106,3.9109,3.9164,3.9166,3.9167,3.9193,3.9193,3.9192,3.9191,3.9269,3.9273,3.9277,3.9311,0,0,3.9288,3.929,0,0,0,0,0,0,0,0,3.9,3.9009,3.9101,3.9104,3.9108,3.9168,3.9142,3.9215,3.9193,3.9161,3.9192,3.9191,3.9237,3.9243,3.926,3.9315,3.9318,3.9288,3.9291,3.9292,3.9293,0,0,0,0,0,0,0,3.8995,3.9006,3.9113,3.9102,3.9106,3.9109,3.9119,3.9156,3.9201,3.9164,3.9166,3.9176,3.9238,3.9256,3.9262,3.9319,3.9288,3.9292,3.9294,3.9295,3.9401,3.9401,0,0,0,0,0,0,3.8987,3.9002,3.9111,3.9116,3.9051,3.9113,3.9123,3.9149,3.9201,3.9208,3.9176,3.9177,3.925,3.9258,3.9265,3.9306,3.9292,3.9296,3.9298,3.94,3.9401,3.9401,0,0,0,0,0,0,3.8983,3.8996,3.9107,3.9059,3.9074,3.9116,3.9144,3.9151,3.9169,3.921,3.9217,3.9187,3.925,3.926,3.9299,3.9309,3.9297,3.9301,3.9399,3.94,3.9401,3.9389,0,0,0,0,0,0,3.8979,3.8995,3.9011,3.906,3.9076,3.9143,3.9145,3.9153,3.9176,3.9178,3.9222,3.9229,3.925,3.9293,3.9302,3.9314,3.9304,3.9399,3.94,3.9401,3.9389,3.9389,3.939,0,0,0,0,0,3.8974,3.9004,3.9012,3.9025,3.9098,3.9144,3.9153,3.9179,3.9177,3.9191,3.9217,3.9227,3.9306,3.9297,3.9308,3.932,3.9398,3.9399,3.9401,3.9389,3.9389,3.939,0,0,0,0,0,0,3.8954,3.9011,3.9021,3.9068,3.9101,3.9148,3.9168,3.918,3.9212,3.9212,3.9241,3.925,3.9286,3.9307,3.9296,3.9353,3.9352,3.9356,3.9339,3.934,3.9341,3.9335,3.9307,0,0,0,0,0,3.8956,3.8991,3.9037,3.9074,3.909,3.9126,3.9147,3.9164,3.9198,3.9212,3.924,3.9271,3.9302,3.9322,3.9354,3.9391,3.9399,3.9405,3.9405,3.9406,3.9408,3.9426,3.9428,3.9406,3.9406,3.9406,0,0,3.8959,3.8994,3.9014,3.9071,3.9099,3.9131,3.9138,3.9172,3.9195,3.9216,3.9255,3.9276,3.9312,3.9349,3.9367,3.9368,3.9416,3.9407,3.9407,3.941,3.9427,3.9429,3.9431,3.9407,3.9406,3.9406,0,0,3.8981,3.9012,3.9045,3.9072,3.9114,3.9137,3.9144,3.9189,3.9204,3.9243,3.9259,3.9284,3.9339,3.9363,3.9382,3.9407,3.9417,3.9416,3.942,3.9436,3.9438,3.944,3.9446,3.9449,3.9418,3.9418,3.9418,0,3.8979,3.9031,3.906,3.9093,3.9116,3.9137,3.9168,3.9191,3.924,3.9254,3.9254,3.932,3.9346,3.9387,3.9393,3.9409,3.9415,3.9412,3.9436,3.9438,3.944,3.9446,3.9449,3.9418,3.9418,3.9418,3.9418,0,3.9024,3.906,3.9081,3.9128,3.9153,3.9185,3.9215,3.9236,3.9249,3.9271,3.9307,3.9339,3.9375,3.9386,3.94,3.9428,3.9427,3.9431,3.943,3.9441,3.9448,3.9451,3.9417,3.9418,3.9418,3.9418,0,0,3.9039,3.91,3.9107,3.9127,3.9173,3.9199,3.9229,3.9266,3.9282,3.9313,3.9337,3.9381,3.9384,3.9405,3.9421,3.9436,3.945,3.9438,3.9439,3.9438,3.948,3.9476,3.9479,3.9457,3.9457,3.9458,3.9477,0,3.9065,3.9124,3.9148,3.9194,3.9224,3.9242,3.9268,3.9297,3.9316,3.9342,3.9363,3.9392,3.9396,3.9408,3.9424,3.9446,3.9459,3.9444,3.9476,3.9477,3.9467,3.9483,3.948,3.9497,3.948,3.948,3.9481,0,3.9105,3.9137,3.9186,3.9224,3.9238,3.9261,3.9295,3.9321,3.9351,3.9364,3.9386,3.9401,3.9429,3.9426,3.9463,3.9453,3.9466,3.9478,3.948,3.9483,3.948,3.9486,3.9503,3.9505,3.9485,3.9485,3.9485,0,3.9107,3.9163,3.9199,3.9216,3.9262,3.9277,3.9296,3.9327,3.9346,3.9374,3.9386,3.9417,3.9433,3.9454,3.9475,3.9471,3.9509,3.9509,3.9518,3.9518,3.9526,3.9525,3.9544,3.9536,3.9536,3.9536,3.9536,0,3.9133,3.9162,3.92,3.9222,3.9253,3.9279,3.9307,3.9328,3.9354,3.9377,3.9394,3.9414,3.9441,3.9464,3.9479,3.9506,3.9514,3.9523,3.9526,3.9521,3.952,3.9531,3.953,3.9536,3.9536,3.9536,3.9536,0,3.9142,3.9169,3.9209,3.9249,3.9259,3.928,3.9312,3.9332,3.9351,3.938,3.9388,3.9418,3.9445,3.9468,3.9504,3.9514,3.9542,3.9546,3.9532,3.9534,3.9542,3.954,3.9568,3.9572,3.9562,3.9562,3.9562,0,3.9157,3.9179,3.9221,3.9239,3.9258,3.9287,3.9306,3.9331,3.935,3.9384,3.9399,3.9428,3.9453,3.9495,3.9518,3.9544,3.9549,3.9557,3.9553,3.9546,3.9547,3.9546,3.9547,3.9557,3.9557,3.9557,3.9557,0,3.9179,3.919,3.922,3.9252,3.9275,3.9301,3.9328,3.934,3.9369,3.9389,3.9418,3.9437,3.9473,3.9501,3.9529,3.9546,3.9555,3.9558,3.9561,3.9556,3.9546,3.955,3.9532,3.9557,3.9557,3.9557,3.9557,3.9557,3.919,3.9209,3.9241,3.9272,3.9294,3.9318,3.9338,3.9359,3.9384,3.9417,3.9429,3.9458,3.9484,3.9523,3.954,3.9561,3.9561,3.9567,3.9568,3.9569,3.9567,3.9543,3.9566,3.9566,3.9566,3.9566,3.9566,0,3.9211,3.9232,3.926,3.9296,3.9319,3.9328,3.9356,3.9374,3.94,3.9425,3.9448,3.948,3.9506,3.953,3.9556,3.9568,3.9572,3.9574,3.9573,3.9576,3.9566,3.956,3.9569,3.9569,3.9569,3.9569,3.9569,3.9569,3.9225,3.9258,3.9272,3.9314,3.9334,3.9364,3.938,3.94,3.9419,3.9455,3.9477,3.9493,3.9516,3.9543,3.9566,3.9572,3.958,3.958,3.9587,3.9577,3.9577,3.9576,3.9571,3.9582,3.9582,3.9595,3.9595,3.9595]}]]